Date,TemperatureHighF,TemperatureAvgF,TemperatureLowF,DewpointHighF,DewpointAvgF,DewpointLowF,HumidityHigh,HumidityAvg,HumidityLow,PressureMaxIn,PressureMinIn,WindSpeedMaxMPH,WindSpeedAvgMPH,GustSpeedMaxMPH,PrecipitationSumIn
2013-3-1,44.5,38.9,31.0,30.9,28.5,26.6,90,67,51,29.92,29.84,6,2,9,0.00
2013-3-2,43.8,36.8,29.2,30.5,25.7,20.2,90,66,49,29.93,29.82,4,1,10,0.00
2013-3-3,44.5,35.0,27.0,23.1,19.2,16.0,69,53,38,29.99,29.87,6,3,9,0.00
2013-3-4,52.2,35.7,21.5,26.9,16.5,12.3,82,49,21,30.13,29.99,5,2,9,0.00
2013-3-5,43.8,40.2,33.5,41.2,34.4,24.8,92,80,57,30.07,29.58,3,0,5,0.18
2013-3-6,47.9,40.1,34.8,39.7,29.7,24.3,93,68,47,30.07,29.55,10,5,17,0.10
2013-3-7,52.9,41.2,31.2,31.5,28.2,24.9,86,61,41,30.26,30.07,6,3,11,0.00
2013-3-8,55.0,42.5,29.8,27.7,24.9,22.7,79,52,29,30.31,30.18,7,3,10,0.00
2013-3-9,63.4,45.9,30.6,35.5,29.7,24.9,80,56,31,30.34,30.23,4,1,5,0.00
2013-3-10,68.2,50.0,32.1,36.2,31.5,26.1,88,54,27,30.31,30.18,5,1,7,0.00
2013-3-11,66.2,53.4,37.7,53.6,42.3,26.8,88,67,43,30.21,29.89,8,2,11,0.01
2013-3-12,66.0,57.8,45.6,57.4,50.8,32.9,92,79,47,29.95,29.72,9,4,15,0.36
2013-3-13,54.2,44.0,30.2,34.2,26.6,18.7,93,53,30,30.15,29.95,10,4,12,0.34
2013-3-14,51.6,39.5,30.4,22.1,17.4,14.5,57,42,24,30.25,30.13,6,3,10,0.22
2013-3-15,62.2,45.0,25.8,36.7,28.6,19.5,90,56,34,30.19,29.89,11,3,17,0.00
2013-3-16,75.9,62.0,44.3,53.0,45.0,35.6,81,56,35,29.89,29.64,12,5,16,0.01
2013-3-17,57.1,49.7,39.7,51.0,44.8,37.6,92,84,60,30.15,29.82,4,1,7,0.00
2013-3-18,40.0,38.6,37.3,38.1,36.4,34.9,93,92,91,30.17,29.84,3,1,5,0.39
2013-3-19,64.6,49.2,37.8,42.8,30.8,11.2,93,59,19,30.03,29.83,8,3,18,0.00
2013-3-20,55.0,46.7,38.3,27.0,14.6,6.2,50,28,19,30.10,29.79,8,3,14,0.00
2013-3-21,47.0,37.6,29.5,30.6,16.5,8.7,60,43,27,29.98,29.75,7,3,10,0.00
2013-3-22,51.2,35.7,19.1,26.6,16.2,12.2,86,48,25,30.09,29.98,7,2,9,0.00
2013-3-23,56.4,43.2,33.4,33.8,28.3,22.9,80,58,35,30.06,29.91,3,0,3,0.00
2013-3-24,40.3,37.5,35.0,37.9,34.6,29.2,92,89,78,29.93,29.55,4,1,7,0.59
2013-3-25,45.8,38.9,34.3,36.3,28.5,22.1,92,69,43,29.83,29.56,11,4,17,0.02
2013-3-26,45.7,40.0,33.9,29.0,26.3,24.5,74,59,45,30.14,29.83,6,3,11,0.00
2013-3-27,49.2,40.3,33.0,27.5,23.8,20.6,73,53,35,30.25,30.13,7,3,12,0.00
2013-3-28,55.0,40.3,28.2,27.7,23.7,21.5,76,54,30,30.30,30.18,7,2,13,0.00
2013-3-29,59.4,43.6,25.9,33.6,26.0,23.0,91,56,25,30.34,30.18,6,2,11,0.00
2013-3-30,65.1,51.6,35.6,41.4,35.1,28.8,90,57,30,30.23,30.06,5,1,7,0.00
2013-3-31,67.2,54.7,46.3,55.5,49.5,39.9,91,83,61,30.08,29.79,9,3,11,0.52